User: anonymous   Login
Location: Antioch Baptist Church
(32.7160°N, 96.7483°W)
Time: 05:36:51
(UTC+00:00)
Language:

Cosmos 1437 Rocket - Orbit

View from above orbital plane
View from above orbital plane
View from above satellite
View from above satellite

Ground track
Ground track

The orbit data is extracted from the following two-line orbital elements,

1 13771U 83003B   24108.20428815  .00014984  00000-0  69956-3 0  9992
2 13771  81.1669   0.0840 0039251 350.7148   9.3351 15.19018476250877
Epoch (UTC): 17 April 2024 04:54:10
Eccentricity: 0.0039251
inclination: 81.1669°
perigee height: 482 km
apogee height: 536 km
right ascension of ascending node: 0.0840°
argument of perigee: 350.7148°
revolutions per day: 15.19018476
mean anomaly at epoch: 9.3351°
orbit number at epoch: 25087

The dashed part of the orbit path shows where the satellite is in the earth's shadow,  

DLR